| time (UTC) | temp F | wind direction | speed MPH | gust MPH | rain 1hr in | rain 24hr in | rain mn in | humidity % | barometer mb |
| 20260502181609 | 72 | 13 | 2.0 | 6.0 | 0.00 | 0.09 | 0.00 | 46 | 1020.0 |
| 20260502180116 | 72 | 330 | 2.0 | 7.0 | 0.00 | 0.09 | 0.00 | 46 | 1020.1 |
| 20260502170105 | 70 | 91 | 1.0 | 7.0 | 0.00 | 0.15 | 0.00 | 50 | 1020.7 |
| 20260502163028 | 69 | 354 | 3.0 | 9.0 | 0.00 | 0.32 | 0.00 | 56 | 1020.6 |
| 20260502161618 | 69 | 48 | 1.0 | 6.0 | 0.00 | 0.32 | 0.00 | 56 | 1020.7 |
| 20260502151516 | 66 | 66 | 3.0 | 8.0 | 0.00 | 0.45 | 0.00 | 59 | 1020.3 |
| 20260502130110 | 58 | 301 | 0.0 | 4.0 | 0.00 | 0.66 | 0.00 | 84 | 1019.4 |
| 20260502123005 | 56 | 328 | 0.0 | 1.0 | 0.00 | 0.78 | 0.00 | 91 | 1018.6 |
| 20260502121608 | 55 | 328 | 0.0 | 1.0 | 0.00 | 0.78 | 0.00 | 91 | 1018.5 |
| 20260502114509 | 54 | 325 | 0.0 | 1.0 | 0.00 | 0.79 | 0.00 | 91 | 1018.0 |
| 20260502113106 | 54 | 325 | 0.0 | 2.0 | 0.00 | 0.79 | 0.00 | 91 | 1017.8 |
| 20260502111515 | 54 | 310 | 0.0 | 1.0 | 0.00 | 0.79 | 0.00 | 90 | 1017.5 |
| 20260502110006 | 55 | 328 | 0.0 | 4.0 | 0.00 | 0.79 | 0.00 | 89 | 1017.3 |
| 20260502104523 | 55 | 346 | 0.0 | 4.0 | 0.00 | 0.79 | 0.00 | 90 | 1017.0 |
| 20260502103114 | 55 | 322 | 0.0 | 2.0 | 0.00 | 0.79 | 0.00 | 89 | 1016.8 |
| 20260502101514 | 56 | 333 | 1.0 | 4.0 | 0.00 | 0.79 | 0.00 | 89 | 1016.8 |
| 20260502090116 | 56 | 354 | 1.0 | 5.0 | 0.00 | 0.79 | 0.00 | 89 | 1016.5 |
| 20260502071520 | 56 | 354 | 0.0 | 5.0 | 0.00 | 0.79 | 0.00 | 91 | 1016.6 |
| 20260502070013 | 56 | 342 | 0.0 | 2.0 | 0.00 | 0.79 | 0.00 | 91 | 1016.3 |
| 20260502064511 | 56 | 298 | 0.0 | 2.0 | 0.00 | 0.79 | 0.00 | 91 | 1016.5 |
| 20260502063016 | 56 | 347 | 0.0 | 3.0 | 0.00 | 0.79 | 0.00 | 91 | 1016.8 |
| 20260502061512 | 56 | 354 | 0.0 | 0.0 | 0.00 | 0.79 | 0.00 | 92 | 1016.7 |
| 20260502060008 | 56 | 359 | 0.0 | 2.0 | 0.00 | 0.79 | 0.00 | 92 | 1016.8 |
| 20260502054611 | 56 | 332 | 0.0 | 1.0 | 0.00 | 0.79 | 0.00 | 93 | 1016.7 |
| 20260502053015 | 56 | 332 | 0.0 | 1.0 | 0.00 | 0.79 | 0.00 | 93 | 1016.7 |
| 20260502051531 | 55 | 328 | 0.0 | 2.0 | 0.00 | 0.79 | 0.00 | 93 | 1016.7 |
| 20260502050010 | 55 | 330 | 0.0 | 2.0 | 0.00 | 0.79 | 0.79 | 94 | 1016.4 |
| 20260502044506 | 55 | 328 | 0.0 | 0.0 | 0.00 | 0.79 | 0.79 | 94 | 1016.1 |
| 20260502043008 | 56 | 328 | 0.0 | 1.0 | 0.00 | 0.79 | 0.79 | 94 | 1016.0 |
| 20260502041619 | 56 | 328 | 0.0 | 0.0 | 0.00 | 0.79 | 0.79 | 94 | 1016.3 |
| 20260502040009 | 56 | 328 | 0.0 | 1.0 | 0.00 | 0.79 | 0.79 | 94 | 1016.4 |
| 20260502034513 | 56 | 328 | 0.0 | 0.0 | 0.00 | 0.79 | 0.79 | 93 | 1016.3 |
| 20260502033004 | 56 | 328 | 0.0 | 0.0 | 0.01 | 0.79 | 0.79 | 93 | 1016.1 |
| 20260502031508 | 56 | 328 | 0.0 | 1.0 | 0.01 | 0.79 | 0.79 | 93 | 1016.1 |
| 20260502030008 | 56 | 319 | 0.0 | 0.0 | 0.01 | 0.79 | 0.79 | 92 | 1016.3 |
| 20260502024611 | 56 | 319 | 0.0 | 0.0 | 0.01 | 0.79 | 0.79 | 92 | 1016.2 |
| 20260502023025 | 56 | 319 | 0.0 | 0.0 | 0.01 | 0.78 | 0.78 | 91 | 1016.4 |
| 20260502020116 | 56 | 326 | 0.0 | 0.0 | 0.02 | 0.78 | 0.78 | 91 | 1015.8 |
| 20260502014516 | 56 | 333 | 0.0 | 0.0 | 0.02 | 0.78 | 0.78 | 91 | 1015.5 |
| 20260502013014 | 56 | 64 | 0.0 | 6.0 | 0.01 | 0.77 | 0.77 | 91 | 1014.7 |
| 20260502011526 | 56 | 10 | 0.0 | 4.0 | 0.01 | 0.77 | 0.77 | 90 | 1014.9 |
| 20260502010011 | 57 | 32 | 0.0 | 0.0 | 0.00 | 0.77 | 0.76 | 90 | 1014.9 |
| 20260502004515 | 57 | 32 | 0.0 | 4.0 | 0.00 | 0.77 | 0.76 | 90 | 1015.0 |
| 20260502003019 | 57 | 8 | 0.0 | 2.0 | 0.01 | 0.77 | 0.76 | 89 | 1014.8 |
| 20260502001505 | 57 | 10 | 0.0 | 4.0 | 0.01 | 0.77 | 0.76 | 89 | 1014.9 |
| 20260502000007 | 57 | 26 | 0.0 | 4.0 | 0.01 | 0.78 | 0.76 | 89 | 1014.6 |
| 20260501234511 | 57 | 18 | 0.0 | 3.0 | 0.01 | 0.78 | 0.76 | 89 | 1014.6 |
| 20260501233019 | 57 | 81 | 0.0 | 4.0 | 0.00 | 0.77 | 0.75 | 88 | 1014.5 |
| 20260501231512 | 58 | 44 | 0.0 | 4.0 | 0.00 | 0.77 | 0.75 | 86 | 1014.6 |
| 20260501230120 | 58 | 12 | 0.0 | 4.0 | 0.00 | 0.77 | 0.75 | 85 | 1014.7 |
| 20260501224515 | 58 | 82 | 0.0 | 1.0 | 0.00 | 0.81 | 0.75 | 85 | 1014.8 |
| 20260501223011 | 58 | 58 | 1.0 | 5.0 | 0.00 | 0.81 | 0.75 | 83 | 1014.3 |
| 20260501221512 | 58 | 20 | 0.0 | 6.0 | 0.00 | 0.81 | 0.75 | 84 | 1014.0 |
| 20260501214521 | 58 | 359 | 0.0 | 4.0 | 0.00 | 0.83 | 0.75 | 83 | 1013.9 |
| 20260501213118 | 58 | 18 | 1.0 | 5.0 | 0.00 | 0.83 | 0.75 | 83 | 1013.7 |
| 20260501211610 | 57 | 337 | 0.0 | 4.0 | 0.00 | 0.83 | 0.75 | 83 | 1014.0 |
| 20260501210022 | 57 | 25 | 4.0 | 8.0 | 0.00 | 0.83 | 0.75 | 81 | 1013.5 |
| 20260501204510 | 57 | 56 | 3.0 | 10.0 | 0.00 | 0.86 | 0.75 | 85 | 1012.9 |
| 20260501203104 | 57 | 87 | 4.0 | 9.0 | 0.01 | 0.86 | 0.75 | 88 | 1012.8 |
| 20260501201523 | 56 | 4 | 1.0 | 9.0 | 0.02 | 0.86 | 0.75 | 90 | 1012.3 |
| 20260501200010 | 56 | 354 | 2.0 | 10.0 | 0.02 | 0.96 | 0.75 | 91 | 1012.6 |
| 20260501194609 | 55 | 85 | 6.0 | 12.0 | 0.03 | 0.96 | 0.75 | 91 | 1012.7 |
| 20260501193030 | 55 | 112 | 2.0 | 6.0 | 0.03 | 0.95 | 0.74 | 91 | 1013.6 |
| 20260501191607 | 56 | 4 | 0.0 | 1.0 | 0.02 | 0.94 | 0.73 | 92 | 1014.5 |
| 20260501190132 | 55 | 323 | 0.0 | 7.0 | 0.03 | 0.94 | 0.73 | 93 | 1014.6 |
| 20260501184514 | 55 | 66 | 1.0 | 8.0 | 0.03 | 0.93 | 0.72 | 92 | 1014.6 |
| 20260501183021 | 55 | 41 | 1.0 | 6.0 | 0.02 | 0.92 | 0.71 | 93 | 1014.9 |